FW0321 Weather Reports


time (UTC)temp
F
wind
direction
speed
knots
gust
knots
rain 1hr
in
rain 24hr
in
rain mn
in
humidity
%
barometer
mb
20260506195655 38 241 0.9 5.2 0.01 0.08 0.31 92 1011.0
20260506194756 38 205 1.7 7.0 0.01 0.08 0.31 92 1011.0
20260506193855 38 210 0.0 2.6 0.00 0.07 0.31 92 1011.0
20260506192955 38 194 0.0 2.6 0.00 0.07 0.30 92 1010.9
20260506192055 38 193 0.9 5.2 0.00 0.07 0.30 92 1010.9
20260506191156 38 170 0.9 6.1 0.00 0.07 0.30 92 1010.9
20260506190255 38 55 0.9 3.5 0.00 0.07 0.30 92 1010.8
20260506184454 38 65 1.7 3.5 0.01 0.07 0.30 92 1010.6
20260506183554 38 66 0.9 2.6 0.01 0.07 0.30 92 1010.5
20260506182654 38 65 0.9 1.7 0.01 0.07 0.30 91 1010.5
20260506181754 38 65 0.9 3.5 0.01 0.07 0.30 91 1010.5
20260506180854 38 63 0.9 3.5 0.01 0.07 0.30 91 1010.4
20260506175954 38 62 0.9 2.6 0.02 0.07 0.30 91 1010.4
20260506174154 38 60 0.9 2.6 0.01 0.06 0.29 91 1010.3
20260506172354 38 55 1.7 3.5 0.02 0.06 0.29 90 1010.3
20260506171454 38 56 0.9 2.6 0.03 0.06 0.29 90 1010.1
20260506170554 38 51 0.9 2.6 0.04 0.06 0.29 89 1010.0
20260506165654 38 12 0.9 3.5 0.04 0.06 0.28 89 1009.9
20260506164754 38 323 0.9 2.6 0.05 0.06 0.28 89 1010.0
20260506163856 38 320 0.9 1.7 0.06 0.06 0.28 88 1010.0
20260506162954 38 319 0.0 1.7 0.06 0.06 0.28 88 1010.0
20260506161156 37 318 1.7 3.5 0.02 0.02 0.25 85 1010.1
20260506160254 38 324 3.5 7.8 0.02 0.02 0.25 83 1010.0
20260506155354 39 324 2.6 6.1 0.01 0.01 0.24 81 1009.9
20260506154454 40 353 1.7 3.5 0.01 0.01 0.24 81 1009.9
20260506153556 40 339 2.6 7.8 0.00 0.00 0.23 80 1009.7
20260506152655 40 288 2.6 7.8 0.00 0.00 0.23 79 1009.9
20260506151754 40 286 2.6 5.2 0.00 0.00 0.23 79 1009.8
20260506150854 40 304 2.6 6.1 0.00 0.00 0.23 79 1009.7
20260506145955 41 286 4.3 9.6 0.00 0.00 0.23 78 1009.7
20260506145054 42 281 5.2 11.3 0.00 0.00 0.23 76 1009.6
20260506144154 43 272 3.5 11.3 0.00 0.00 0.23 76 1009.6
20260506143254 43 268 3.5 7.8 0.00 0.00 0.23 76 1009.6
20260506142355 43 270 3.5 7.8 0.00 0.00 0.23 75 1009.5
20260506141454 44 279 4.3 10.4 0.00 0.00 0.23 73 1009.5
20260506140556 45 268 3.5 8.7 0.00 0.00 0.23 73 1009.5
20260506135655 45 281 3.5 8.7 0.00 0.00 0.23 72 1009.5
20260506134754 45 264 4.3 7.8 0.00 0.00 0.23 71 1009.4
20260506132954 47 248 2.6 7.0 0.00 0.00 0.23 73 1009.3
20260506132054 46 276 4.3 9.6 0.00 0.00 0.23 73 1009.3
20260506131154 45 287 4.3 9.6 0.00 0.00 0.23 75 1009.3
20260506130254 45 276 3.5 10.4 0.00 0.00 0.23 73 1009.2
20260506125354 45 276 4.3 9.6 0.00 0.00 0.23 73 1009.2
20260506124454 47 269 3.5 9.6 0.00 0.00 0.23 68 1009.2
20260506123554 48 236 2.6 7.8 0.00 0.00 0.23 66 1009.1
20260506122654 48 234 2.6 7.0 0.00 0.00 0.23 65 1009.0
20260506121754 48 224 2.6 6.1 0.00 0.00 0.23 67 1009.0
20260506120854 48 224 2.6 6.1 0.00 0.00 0.23 62 1008.9
20260506115054 48 220 2.6 6.1 0.00 0.00 0.23 62 1008.8
20260506114154 47 210 3.5 7.0 0.00 0.00 0.23 61 1008.7
20260506113253 47 244 2.6 7.8 0.00 0.00 0.23 62 1008.6
20260506112354 48 220 2.6 6.1 0.00 0.00 0.23 62 1008.6
20260506111453 48 224 2.6 6.1 0.00 0.00 0.23 64 1008.4
20260506110553 47 255 2.6 6.1 0.00 0.00 0.23 65 1008.4
20260506105654 47 235 2.6 5.2 0.00 0.01 0.23 65 1008.3
20260506104753 47 206 2.6 7.0 0.00 0.01 0.23 62 1008.2
20260506103853 47 210 2.6 8.7 0.00 0.01 0.23 62 1008.2
20260506102953 47 240 2.6 6.1 0.00 0.02 0.23 64 1008.2
20260506102054 47 219 2.6 6.1 0.00 0.03 0.23 63 1008.1
20260506100253 46 236 2.6 6.1 0.00 0.04 0.23 65 1008.0
20260506095353 45 262 1.7 5.2 0.00 0.06 0.23 65 1008.0
20260506093553 44 197 3.5 6.1 0.00 0.07 0.23 67 1007.9
20260506092653 44 197 3.5 6.1 0.00 0.09 0.23 67 1007.9
20260506091753 44 203 2.6 7.0 0.00 0.10 0.23 66 1007.9
20260506085953 44 198 3.5 6.1 0.00 0.10 0.23 70 1007.8
20260506085053 44 216 2.6 7.8 0.00 0.10 0.23 69 1007.7
20260506084153 44 214 1.7 3.5 0.00 0.10 0.23 71 1007.7
20260506083253 43 198 2.6 5.2 0.00 0.11 0.23 70 1007.7
20260506082353 43 220 1.7 4.3 0.00 0.12 0.23 70 1007.7
20260506081453 43 202 1.7 4.3 0.00 0.13 0.23 71 1007.5
20260506080553 42 181 1.7 5.2 0.00 0.14 0.23 71 1007.4
20260506072953 41 202 0.9 4.3 0.00 0.17 0.23 73 1007.2
20260506071153 41 202 0.9 3.5 0.00 0.17 0.23 75 1007.0
20260506070253 40 199 0.9 3.5 0.00 0.17 0.23 76 1006.9
20260506061753 39 210 1.7 4.3 0.00 0.17 0.23 76 1006.8
20260506060853 39 255 0.9 4.3 0.00 0.18 0.23 76 1006.6
20260506050553 38 335 0.0 3.5 0.00 0.18 0.23 81 1006.1
20260506043853 38 0 0.0 0.0 0.00 0.18 0.23 82 1005.9
20260506042953 38 36 0.0 0.9 0.00 0.18 0.23 83 1005.9
20260506041153 37 36 0.0 2.6 0.00 0.18 0.23 84 1005.7
20260506035353 37 37 0.0 0.9 0.00 0.18 0.23 84 1005.9
20260506033553 37 37 0.0 1.7 0.00 0.18 0.23 84 1005.5
20260506032653 37 37 0.0 0.9 0.00 0.18 0.23 84 1005.3
20260506031753 37 37 0.0 2.6 0.00 0.18 0.23 84 1005.3
20260506030852 37 37 0.0 0.9 0.00 0.18 0.23 84 1005.3
20260506025953 37 37 0.0 1.7 0.00 0.18 0.23 84 1005.2
20260506025052 37 37 0.9 2.6 0.00 0.19 0.23 85 1005.3
20260506024152 37 37 0.0 2.6 0.00 0.19 0.23 84 1005.1
20260506023252 37 36 0.9 2.6 0.00 0.19 0.23 85 1005.0
20260506022352 37 35 0.9 2.6 0.00 0.19 0.23 85 1005.0
20260506021452 36 0 0.0 0.0 0.00 0.19 0.23 85 1004.9
20260506015652 35 347 1.7 2.6 0.00 0.19 0.23 87 1004.8
20260506014752 35 347 0.9 2.6 0.00 0.20 0.23 87 1004.8
20260506012953 35 348 0.9 2.6 0.00 0.20 0.23 87 1004.6
20260506012052 35 347 0.9 2.6 0.00 0.20 0.23 86 1004.6
20260506011600 41 263 2.6 6.1 0.00 0.20 0.23 70 1004.7